San Juan, PR

3:45 PM AST on February 14, 2016 (GMT -0400)
Luis Munoz Marin International

Weather History for TJSJ - November, 2011

Change the Weather History Date:

Saturday, November 26, 2011

  Actual Average Record
Temperature  
Mean Temperature 79 °F 80 °F  
Max Temperature 84 °F 85 °F 89 °F (1994)
Min Temperature 73 °F 75 °F 66 °F (1961)
Degree Days  
Heating Degree Days 0 0  
Month to date heating degree days 0 0  
Since 1 July heating degree days 0 0  
Cooling Degree Days 14 15  
Month to date cooling degree days 415 408  
Year to date cooling degree days 5159 5367  
Growing Degree Days 28 (Base 50)    
Moisture  
Dew Point 72 °F    
Average Humidity 81    
Maximum Humidity 93    
Minimum Humidity 69    
Precipitation  
Precipitation 0.03 in 0.19 in 2.27 in (1915)
Month to date precipitation 3.01 5.60  
Year to date precipitation 78.23 50.58  
Snow  
Snow 0.00 in 0.00 in - ()
Month to date snowfall 0.0 0.0  
Since 1 July snowfall 0.0 0.0  
Since 1 September snowfall 0.0 0.0  
Snow Depth 0.00 in    
Sea Level Pressure  
Sea Level Pressure 29.92 in    
Wind  
Wind Speed 4 mph (NE)    
Max Wind Speed 16 mph    
Max Gust Speed 21 mph    
Visibility 10 miles    
Events Rain    
T = Trace of Precipitation, MM = Missing Value Source: NWS Daily Summary

Daily Weather History Graph

Daily Weather History Graph

Search for Another Location

Airport or City:

Trip Planner

Search our weather history database for the weather conditions in past years. The results will help you decide how hot, cold, wet, or windy it might be!

Date:

Astronomy

Nov. 26, 2011 Rise Set
Actual Time 6:36 AM AST 5:45 PM AST
Civil Twilight 6:13 AM AST 6:09 PM AST
Nautical Twilight 5:46 AM AST 6:35 PM AST
Astronomical Twilight 5:20 AM AST 7:02 PM AST
Moon 7:56 AM AST (11/26) 7:19 PM AST (11/26)
Length of Visible Light 11h 55m
Length of Day
11h 09m
Waxing Crescent, 3% of the Moon is Illuminated
Nov 26
Waxing Crescent
Dec 2
First Quarter
Dec 10
Full
Dec 17
Last Quarter
Dec 24
New

Hourly Weather History & Observations

Time (AST) Temp. Heat Index Dew Point Humidity Pressure Visibility Wind Dir Wind Speed Gust Speed Precip Events Conditions
12:56 AM 75.9 °F - 71.1 °F 85% 29.95 in 10.0 mi Calm Calm - N/A   Mostly Cloudy
1:56 AM 75.0 °F - 71.1 °F 87% 29.93 in 10.0 mi Calm Calm - N/A   Mostly Cloudy
2:56 AM 75.0 °F - 71.1 °F 87% 29.91 in 10.0 mi WSW 4.6 mph - N/A   Scattered Clouds
3:56 AM 75.0 °F - 71.1 °F 87% 29.91 in 10.0 mi Calm Calm - N/A   Partly Cloudy
4:56 AM 73.9 °F - 71.1 °F 91% 29.90 in 10.0 mi Calm Calm - N/A   Partly Cloudy
5:56 AM 73.9 °F - 71.1 °F 91% 29.91 in 10.0 mi Calm Calm - N/A   Scattered Clouds
6:56 AM 75.0 °F - 71.1 °F 87% 29.93 in 10.0 mi Calm Calm - N/A   Scattered Clouds
7:56 AM 78.1 °F - 72.0 °F 81% 29.95 in 10.0 mi Calm Calm - N/A   Scattered Clouds
8:56 AM 82.0 °F 86.7 °F 72.0 °F 71% 29.97 in 10.0 mi Calm Calm - N/A   Scattered Clouds
9:56 AM 82.0 °F 86.7 °F 72.0 °F 71% 29.98 in 10.0 mi North 5.8 mph - N/A   Scattered Clouds
10:56 AM 82.0 °F 86.7 °F 72.0 °F 71% 29.97 in 10.0 mi NE 6.9 mph - N/A   Scattered Clouds
11:56 AM 82.9 °F 88.8 °F 73.0 °F 72% 29.95 in 10.0 mi NNE 9.2 mph - N/A   Scattered Clouds
12:56 PM 82.0 °F 86.7 °F 72.0 °F 71% 29.92 in 10.0 mi ENE 6.9 mph - 0.00 in   Scattered Clouds
12:57 PM 82.4 °F 87.2 °F 71.6 °F 70% 29.92 in 10.0 mi ENE 8.1 mph - N/A   Mostly Cloudy
12:59 PM 82.4 °F 87.2 °F 71.6 °F 70% 29.92 in 10.0 mi NE 8.1 mph - N/A   Scattered Clouds
1:38 PM 82.4 °F 87.2 °F 71.6 °F 70% 29.90 in 10.0 mi North 9.2 mph - N/A   Scattered Clouds
1:56 PM 82.0 °F 86.7 °F 72.0 °F 71% 29.89 in 10.0 mi North 8.1 mph - N/A   Scattered Clouds
2:56 PM 80.1 °F 83.8 °F 72.0 °F 76% 29.88 in 10.0 mi NNE 12.7 mph - N/A   Scattered Clouds
3:56 PM 79.0 °F - 73.9 °F 84% 29.88 in 10.0 mi North 11.5 mph - 0.01 in   Mostly Cloudy
4:56 PM 79.0 °F - 72.0 °F 79% 29.89 in 10.0 mi NE 11.5 mph - N/A   Overcast
5:56 PM 78.1 °F - 71.1 °F 79% 29.91 in 10.0 mi East 9.2 mph - N/A   Overcast
6:56 PM 75.9 °F - 71.1 °F 85% 29.93 in 10.0 mi East 9.2 mph - N/A   Scattered Clouds
7:56 PM 73.9 °F - 71.1 °F 91% 29.93 in 5.0 mi East 5.8 mph - 0.02 in Rain Light Rain
8:56 PM 73.9 °F - 70.0 °F 87% 29.92 in 10.0 mi Calm Calm - 0.00 in   Scattered Clouds
9:56 PM 75.0 °F - 71.1 °F 87% 29.92 in 10.0 mi Calm Calm - N/A   Scattered Clouds
10:56 PM 75.0 °F - 71.1 °F 87% 29.93 in 10.0 mi Calm Calm - N/A   Scattered Clouds
11:56 PM 75.0 °F - 71.1 °F 87% 29.91 in 10.0 mi Calm Calm - N/A   Scattered Clouds